Wind_Speed
8 8 8 8 8 8 8 8 8 8 9 9 9 9 8 8 9 9 8 8 8 8 8 8 8 8 8 8 9 10 10 11 11 11 11 12 13 13 13 13 14 14 15
10 10 10 10 10 10 9 9 9 9 9 9 9 9 9 9 9 9 9 9 9 9 8 8 9 9 9 10 11 11 12 12 12 12 12 13 13 13 14 14 14 15 15
11 11 11 11 11 11 11 11 11 11 10 10 9 9 10 10 10 10 10 10 10 10 10 9 10 10 10 11 12 12 13 13 14 13 13 14 14 14 14 14 15 15 15
12 12 12 12 12 12 12 12 12 12 11 11 11 10 10 11 11 11 12 12 12 12 11 11 11 12 12 12 12 12 13 14 14 14 15 15 15 15 15 15 16 16 16
13 13 13 13 13 13 13 13 13 12 12 12 12 11 11 12 12 13 13 13 13 13 13 13 13 13 13 13 13 14 14 14 14 15 15 16 16 16 16 17 17 18 18
14 14 14 14 14 15 14 14 14 13 13 13 13 12 12 12 13 13 13 14 13 14 14 14 14 14 14 14 15 15 15 15 15 15 16 16 17 17 18 18 18 18 19
16 15 15 15 15 16 15 15 15 14 14 14 13 13 14 13 13 14 14 14 14 14 14 14 15 15 15 15 16 16 16 17 17 17 17 17 18 18 18 19 19 19 19
17 17 17 16 16 16 16 15 15 15 15 14 14 14 15 15 15 15 15 15 15 16 16 16 16 17 17 17 17 17 18 19 19 19 19 19 19 20 20 20 20 21 21
19 19 18 18 18 17 17 17 16 16 16 16 16 16 17 17 17 16 16 16 17 17 17 17 17 18 18 18 19 19 20 20 20 20 21 22 21 21 22 22 22 22 23
21 21 20 20 20 19 18 18 18 17 17 17 18 18 19 19 19 19 19 18 18 19 19 19 19 20 21 21 21 21 22 22 22 23 23 24 23 23 24 24 24 25 25
23 23 23 22 22 21 21 20 19 19 19 19 19 20 20 20 21 21 21 21 21 21 21 21 22 22 22 23 23 23 23 23 24 24 25 25 25 25 26 27 27 27 27
24 24 25 24 24 24 24 23 22 22 22 21 21 21 21 22 22 23 23 23 23 23 23 23 24 24 24 24 25 25 25 25 26 27 27 27 28 27 28 28 29 29 29
24 24 25 26 25 25 25 24 24 24 23 23 23 23 23 23 23 23 24 25 25 25 26 26 26 27 27 27 27 27 27 28 28 29 29 29 30 29 30 30 31 31 31
26 25 26 26 26 26 26 25 25 25 25 24 24 24 24 24 25 25 26 26 26 27 27 28 29 29 29 29 29 29 29 30 30 30 30 31 32 32 32 32 32 33 34
27 27 27 27 27 27 27 27 27 27 27 26 26 25 25 25 26 26 27 27 28 28 29 29 30 30 30 31 31 31 31 32 32 33 33 33 33 34 34 34 34 35 35
28 28 28 28 28 28 28 28 28 28 28 28 27 27 27 27 28 28 29 29 29 30 30 30 31 32 32 32 32 33 34 34 35 35 34 35 35 34 35 35 36 37 37
28 28 29 29 29 29 29 29 29 29 29 29 29 29 30 30 30 31 31 31 32 31 31 31 32 32 33 34 34 35 35 35 35 35 35 35 35 35 36 36 37 37 37
29 30 30 30 30 31 31 31 32 32 31 31 30 30 30 31 32 32 33 32 33 33 33 33 33 34 34 35 35 35 35 35 35 35 35 36 36 37 37 37 37 38 38
29 30 30 31 31 32 32 32 33 33 33 33 32 31 32 32 33 33 34 34 34 34 34 34 35 35 35 35 35 35 36 36 36 37 37 38 38 38 37 37 38 38 38
29 30 31 31 32 32 32 33 33 34 34 34 34 33 33 33 34 34 34 34 35 35 35 35 35 35 35 35 35 36 36 36 37 37 38 38 38 38 38 38 38 39 39
30 30 31 31 31 32 33 33 34 34 34 34 34 34 34 34 34 34 34 34 35 36 36 37 37 36 36 36 36 37 37 37 38 38 38 39 38 38 38 39 39 39 40
31 31 31 31 32 33 33 33 34 35 35 35 35 34 34 34 34 34 34 35 35 36 37 37 38 37 37 37 37 37 38 38 39 39 39 39 39 39 38 39 39 39 40
31 31 31 31 32 32 33 33 34 34 35 35 35 35 35 35 35 35 35 35 36 37 37 37 37 37 37 37 37 38 38 39 39 39 39 38 38 38 38 39 39 40 40
31 30 31 31 31 32 32 33 33 33 33 34 34 34 34 34 35 35 35 35 36 37 37 37 37 37 37 37 38 39 39 39 39 39 39 39 39 39 39 39 40 40 40
31 31 32 32 32 32 32 32 32 32 33 33 34 34 34 34 34 35 35 36 37 37 37 37 37 37 37 38 38 39 39 39 39 39 39 38 38 39 39 39 40 40 40
32 32 32 32 32 32 32 32 32 32 33 33 34 34 34 34 35 35 36 37 37 37 37 37 37 37 38 39 39 39 39 39 39 39 38 38 38 38 39 39 39 40 40
Wind_Direction
282 281 281 284 285 284 286 286 286 288 289 286 280 282 286 288 288 286 287 282 281 283 286 290 289 289 288 286 288 292 292 295 298 294 288 284 283 283 284 287 289 290 289
280 278 279 279 282 282 279 282 286 287 289 284 280 279 280 283 286 286 287 285 282 277 279 284 289 291 294 294 295 297 299 301 301 299 295 290 287 289 291 291 292 292 291
278 277 277 278 280 278 277 280 282 283 283 282 279 279 280 280 281 282 282 282 278 275 278 282 288 291 292 293 295 296 297 299 301 300 296 292 290 290 292 293 294 294 294
275 276 276 277 280 278 276 277 279 282 281 280 279 279 280 281 282 282 281 282 279 277 276 278 282 286 290 290 294 295 297 299 300 300 297 294 291 290 290 291 293 294 295
271 271 271 272 274 274 274 274 276 278 278 277 276 277 278 281 283 283 281 281 280 279 278 278 280 281 284 287 292 297 297 298 300 302 300 295 292 290 289 290 292 293 294
264 265 267 268 270 272 272 271 274 275 274 274 274 274 276 280 281 282 280 280 280 279 278 278 280 282 283 286 289 292 295 297 299 300 301 298 295 294 292 291 291 292 293
261 262 265 266 269 271 270 271 273 273 272 271 272 274 273 274 275 278 279 280 282 282 281 280 280 281 283 285 287 289 291 293 295 297 299 298 296 296 295 294 293 293 293
260 261 262 264 269 270 270 271 271 271 271 271 273 273 273 273 273 275 276 277 279 281 282 283 284 283 284 286 287 288 290 292 294 294 294 296 295 294 293 293 292 292 292
263 263 262 263 265 268 271 271 270 269 270 270 271 274 274 273 271 272 273 276 277 278 280 282 285 285 286 287 287 288 289 290 291 292 292 293 294 292 291 291 291 291 292
264 263 263 263 263 267 271 270 267 266 267 268 269 271 273 273 272 271 271 274 277 278 279 280 281 283 285 286 286 288 288 287 289 291 292 291 291 292 292 292 291 291 292
264 264 264 263 264 266 268 269 269 268 268 270 270 270 272 273 273 272 271 273 276 278 279 279 279 281 283 285 286 287 288 288 288 290 291 290 290 292 292 293 292 291 292
266 264 263 262 264 266 268 269 269 270 268 269 270 271 272 273 274 273 273 273 274 276 278 279 281 281 281 282 283 284 285 287 288 289 289 289 290 291 292 292 292 292 292
266 265 264 264 264 266 268 269 269 269 269 269 270 271 273 274 274 274 274 274 275 276 277 279 281 282 281 281 282 283 285 286 287 288 288 289 289 289 290 291 291 292 292
265 265 265 266 265 266 266 268 270 270 271 270 272 272 273 273 274 273 273 274 275 276 277 278 279 280 282 282 283 283 284 285 286 287 287 288 289 289 289 289 289 289 291
264 265 265 266 266 266 267 268 270 271 272 270 272 272 272 272 274 275 274 275 276 278 278 278 279 280 281 282 283 283 284 285 286 288 287 287 287 287 288 288 289 290 291
264 265 266 267 267 267 267 268 269 269 270 270 271 271 271 271 273 275 276 276 276 277 279 280 280 280 280 281 282 283 284 285 287 288 288 287 286 287 287 288 289 290 291
264 265 267 267 266 267 267 268 268 269 270 270 271 271 271 271 273 275 276 277 277 277 278 280 281 281 281 282 283 284 283 284 285 286 288 288 287 287 287 288 288 289 290
266 266 268 269 268 268 268 268 268 269 270 271 272 272 271 272 273 275 276 278 278 277 278 279 280 281 283 283 284 283 283 283 283 285 287 288 288 287 286 287 288 289 289
268 269 269 271 270 269 269 269 269 270 270 271 271 272 271 272 274 276 277 278 279 279 279 279 280 281 281 282 282 283 284 285 285 285 286 287 288 287 286 287 288 289 290
270 270 271 271 272 271 271 271 271 271 271 271 272 272 272 274 275 275 277 278 278 279 280 281 281 280 280 281 283 284 284 286 287 288 288 288 288 287 286 287 288 289 289
272 272 272 272 273 272 272 272 272 272 272 272 273 272 273 274 275 276 277 277 279 280 281 282 282 281 281 282 283 283 284 284 286 287 287 287 287 286 286 287 289 289 289
273 273 273 273 274 274 273 272 272 272 272 273 273 273 273 273 275 276 277 278 280 281 281 282 283 282 282 283 283 283 284 285 285 286 286 286 285 285 286 287 288 289 290
273 273 274 275 275 274 274 273 273 273 273 273 273 273 273 274 275 276 277 279 280 282 283 283 282 282 283 283 283 283 285 286 286 286 286 286 286 286 286 287 289 289 289
273 274 275 276 276 276 275 274 273 273 274 274 274 274 274 274 275 276 278 280 282 282 283 283 283 283 283 283 283 284 285 286 286 286 286 287 287 287 287 288 289 290 290
272 275 276 276 277 276 275 274 273 273 273 274 275 275 275 276 276 277 279 280 281 282 282 283 283 283 283 284 285 285 286 286 286 286 287 287 288 287 287 288 289 290 291
273 275 276 276 276 276 276 275 275 274 274 275 275 275 276 277 277 278 279 280 281 282 282 282 283 283 284 285 287 287 286 286 286 286 286 286 287 288 288 288 290 290 291
Height
5824 5823 5823 5822 5822 5822 5821 5821 5821 5820 5819 5819 5819 5818 5818 5818 5817 5816 5816 5816 5815 5815 5814 5814 5813 5813 5812 5811 5811 5810 5809 5809 5808 5807 5806 5805 5805 5804 5804 5803 5803 5802 5801
5821 5820 5820 5820 5820 5819 5819 5819 5818 5818 5817 5817 5816 5816 5816 5815 5815 5814 5814 5813 5813 5812 5812 5812 5811 5810 5810 5809 5808 5808 5807 5806 5805 5804 5803 5802 5802 5801 5801 5800 5799 5798 5798
5818 5817 5817 5817 5817 5816 5816 5816 5816 5815 5815 5814 5814 5813 5813 5813 5812 5812 5811 5811 5810 5810 5810 5809 5809 5808 5807 5807 5806 5805 5804 5803 5802 5801 5800 5799 5798 5798 5797 5797 5796 5795 5794
5814 5814 5814 5813 5813 5813 5813 5813 5812 5812 5812 5811 5811 5811 5810 5810 5809 5809 5809 5808 5808 5807 5807 5806 5806 5805 5805 5804 5803 5802 5801 5800 5799 5798 5797 5796 5795 5795 5794 5793 5792 5791 5790
5810 5810 5810 5810 5810 5809 5809 5809 5809 5809 5808 5808 5808 5807 5807 5807 5806 5806 5805 5805 5804 5804 5804 5803 5803 5802 5802 5801 5800 5799 5798 5797 5796 5795 5794 5793 5792 5791 5790 5789 5788 5787 5786
5806 5806 5806 5806 5806 5805 5805 5805 5805 5805 5805 5804 5804 5804 5804 5803 5803 5802 5802 5801 5801 5801 5800 5800 5799 5798 5798 5797 5797 5796 5795 5794 5793 5792 5790 5789 5788 5787 5786 5785 5784 5783 5781
5802 5802 5802 5802 5801 5801 5801 5801 5801 5801 5801 5800 5800 5800 5799 5799 5799 5799 5798 5798 5797 5796 5796 5795 5795 5794 5794 5793 5793 5792 5791 5790 5789 5788 5787 5785 5784 5783 5781 5780 5779 5777 5776
5796 5797 5797 5797 5797 5797 5796 5796 5796 5796 5796 5796 5796 5795 5795 5795 5795 5794 5794 5794 5793 5792 5792 5791 5791 5790 5789 5789 5788 5788 5786 5785 5784 5783 5782 5781 5779 5778 5776 5775 5774 5772 5770
5791 5791 5791 5791 5792 5792 5792 5792 5791 5791 5791 5791 5791 5791 5791 5790 5790 5790 5789 5789 5789 5788 5788 5787 5786 5785 5785 5784 5783 5783 5781 5780 5779 5778 5776 5775 5773 5772 5771 5769 5768 5766 5765
5785 5785 5785 5786 5786 5786 5786 5786 5786 5786 5786 5786 5786 5786 5785 5785 5785 5784 5784 5784 5784 5783 5783 5782 5781 5780 5779 5778 5778 5777 5776 5774 5773 5772 5770 5769 5767 5766 5764 5763 5761 5759 5758
5778 5778 5779 5779 5779 5780 5780 5780 5780 5780 5780 5780 5780 5780 5779 5779 5779 5779 5778 5778 5778 5777 5777 5776 5775 5775 5774 5773 5771 5770 5769 5768 5766 5765 5764 5762 5760 5759 5757 5755 5754 5752 5750
5771 5771 5771 5772 5772 5773 5773 5773 5774 5774 5774 5774 5774 5773 5773 5773 5773 5772 5772 5772 5771 5771 5770 5770 5769 5768 5767 5766 5765 5764 5762 5761 5760 5758 5757 5755 5753 5751 5750 5748 5746 5743 5741
5763 5763 5764 5764 5765 5765 5766 5766 5767 5767 5767 5767 5767 5767 5766 5766 5766 5765 5765 5765 5764 5764 5763 5762 5762 5761 5760 5758 5757 5756 5755 5753 5752 5750 5749 5747 5745 5743 5741 5739 5737 5735 5733
5754 5755 5756 5756 5756 5757 5758 5758 5759 5759 5759 5760 5760 5759 5759 5759 5759 5758 5758 5757 5757 5756 5755 5754 5754 5753 5752 5751 5749 5748 5747 5745 5744 5742 5740 5738 5736 5734 5732 5730 5728 5726 5723
5746 5747 5747 5748 5748 5749 5749 5750 5751 5751 5751 5751 5752 5752 5751 5751 5751 5750 5750 5749 5749 5748 5747 5746 5745 5744 5743 5742 5741 5739 5737 5736 5734 5732 5730 5728 5726 5724 5722 5720 5718 5716 5713
5737 5738 5738 5739 5739 5740 5740 5741 5742 5742 5742 5742 5743 5743 5743 5743 5742 5742 5741 5741 5740 5739 5738 5737 5736 5735 5734 5732 5731 5729 5727 5725 5723 5721 5720 5718 5716 5714 5712 5710 5707 5705 5702
5728 5729 5730 5730 5731 5731 5732 5732 5733 5733 5733 5733 5733 5733 5734 5733 5733 5733 5732 5731 5730 5730 5729 5728 5726 5725 5724 5722 5720 5719 5716 5714 5712 5710 5709 5707 5705 5703 5701 5698 5696 5694 5691
5719 5720 5721 5721 5721 5722 5722 5722 5723 5723 5724 5724 5724 5723 5724 5724 5723 5723 5722 5721 5720 5720 5719 5718 5716 5715 5713 5711 5709 5707 5705 5703 5701 5699 5697 5695 5693 5691 5689 5687 5684 5682 5680
5710 5711 5711 5711 5712 5712 5712 5712 5712 5713 5713 5714 5714 5713 5713 5713 5713 5712 5711 5711 5710 5709 5708 5707 5705 5704 5702 5700 5698 5696 5694 5692 5690 5688 5686 5684 5681 5679 5677 5675 5673 5670 5668
5701 5701 5702 5702 5702 5702 5702 5702 5702 5702 5703 5703 5703 5703 5703 5702 5702 5701 5701 5700 5699 5698 5697 5695 5694 5692 5690 5688 5687 5685 5683 5681 5679 5677 5674 5672 5669 5667 5665 5663 5661 5658 5656
5692 5692 5692 5692 5692 5692 5692 5692 5692 5692 5692 5692 5692 5692 5691 5691 5691 5690 5690 5689 5688 5687 5685 5684 5682 5681 5679 5677 5675 5673 5671 5669 5667 5665 5662 5660 5657 5655 5653 5651 5648 5646 5643
5682 5682 5682 5682 5681 5681 5681 5681 5681 5681 5680 5680 5680 5680 5680 5680 5679 5679 5678 5677 5676 5675 5674 5672 5671 5669 5667 5665 5663 5661 5659 5657 5655 5652 5650 5647 5645 5643 5641 5639 5636 5634 5631
5673 5672 5672 5671 5671 5670 5670 5670 5670 5669 5669 5669 5669 5669 5668 5668 5668 5668 5667 5666 5665 5663 5662 5660 5659 5657 5655 5653 5651 5649 5647 5645 5642 5640 5637 5635 5633 5630 5628 5626 5623 5621 5618
5663 5663 5662 5661 5661 5660 5659 5659 5658 5658 5658 5658 5657 5657 5657 5657 5657 5656 5655 5654 5653 5652 5650 5648 5647 5645 5643 5641 5639 5637 5634 5632 5629 5627 5624 5622 5620 5618 5616 5614 5611 5609 5606
5653 5652 5652 5651 5650 5650 5649 5648 5648 5647 5647 5647 5646 5646 5646 5646 5645 5645 5644 5643 5641 5640 5638 5636 5634 5633 5631 5629 5626 5624 5622 5619 5617 5614 5612 5610 5608 5605 5603 5601 5599 5596 5593
5642 5642 5641 5641 5640 5639 5639 5638 5638 5637 5636 5636 5635 5635 5635 5634 5634 5633 5632 5631 5629 5628 5626 5624 5622 5620 5618 5616 5614 5611 5609 5606 5604 5601 5599 5597 5595 5593 5591 5589 5586 5584 5581